GW5693 Weather Reports


time (UTC)temp
C
wind
direction
speed
KPH
gust
KPH
rain 1hr
cm
rain 24hr
cm
rain mn
cm
humidity
%
barometer
mb
20260503224304 18 253 1.6 4.8 0.00 0.00 0.00 22 1015.6
20260503223804 18 227 1.6 4.8 0.00 0.00 0.00 21 1015.6
20260503223304 19 253 1.6 8.0 0.00 0.00 0.00 21 1015.6
20260503222804 19 234 1.6 3.2 0.00 0.00 0.00 20 1015.6
20260503222304 18 229 1.6 4.8 0.00 0.00 0.00 18 1015.6
20260503221804 18 225 1.6 4.8 0.00 0.00 0.00 20 1015.6
20260503221305 18 273 1.6 4.8 0.00 0.00 0.00 21 1015.6
20260503220804 18 285 3.2 4.8 0.00 0.00 0.00 18 1015.6
20260503215803 18 277 3.2 4.8 0.00 0.00 0.00 20 1015.5
20260503214804 18 225 3.2 8.0 0.00 0.00 0.00 17 1015.6
20260503214305 18 274 3.2 8.0 0.00 0.00 0.00 18 1015.6
20260503213805 19 247 3.2 8.0 0.00 0.00 0.00 19 1015.7
20260503213304 19 257 1.6 4.8 0.00 0.00 0.00 19 1015.7
20260503212803 18 282 3.2 8.0 0.00 0.00 0.00 18 1015.8
20260503212305 18 284 4.8 9.7 0.00 0.00 0.00 18 1015.8
20260503211304 19 267 3.2 4.8 0.00 0.00 0.00 17 1015.7
20260503210803 19 259 3.2 12.9 0.00 0.00 0.00 19 1015.8
20260503210304 19 243 3.2 11.3 0.00 0.00 0.00 20 1015.8
20260503205804 19 284 1.6 8.0 0.00 0.00 0.00 21 1015.9
20260503205304 19 273 4.8 9.7 0.00 0.00 0.00 21 1015.9
20260503204804 18 106 1.6 3.2 0.00 0.00 0.00 21 1015.8
20260503204303 18 232 3.2 9.7 0.00 0.00 0.00 20 1015.9
20260503203804 18 188 3.2 9.7 0.00 0.00 0.00 20 1016.1
20260503203304 18 218 3.2 11.3 0.00 0.00 0.00 20 1016.1
20260503202803 18 261 4.8 14.5 0.00 0.00 0.00 20 1016.1
20260503202304 18 261 3.2 8.0 0.00 0.00 0.00 24 1016.1
20260503201805 18 248 4.8 8.0 0.00 0.00 0.00 21 1016.1
20260503201304 18 349 1.6 9.7 0.00 0.00 0.00 23 1016.1
20260503200803 18 281 3.2 11.3 0.00 0.00 0.00 22 1016.2
20260503200303 18 311 3.2 4.8 0.00 0.00 0.00 22 1016.4
20260503195803 18 314 3.2 4.8 0.00 0.00 0.00 21 1016.5
20260503195304 18 276 3.2 11.3 0.00 0.00 0.00 22 1016.7
20260503194803 18 263 3.2 9.7 0.00 0.00 0.00 23 1016.6
20260503194304 18 275 4.8 9.7 0.00 0.00 0.00 24 1016.7
20260503193804 18 192 3.2 9.7 0.00 0.00 0.00 23 1016.7
20260503192803 18 271 4.8 14.5 0.00 0.00 0.00 24 1016.7
20260503192305 17 266 3.2 8.0 0.00 0.00 0.00 24 1016.7
20260503191804 17 343 4.8 11.3 0.00 0.00 0.00 22 1016.8
20260503191303 17 215 4.8 16.1 0.00 0.00 0.00 23 1017.0
20260503190805 17 176 6.4 14.5 0.00 0.00 0.00 24 1017.1
20260503190303 17 247 4.8 16.1 0.00 0.00 0.00 24 1017.1
20260503185804 17 333 3.2 8.0 0.00 0.00 0.00 25 1017.1
20260503185305 17 217 3.2 9.7 0.00 0.00 0.00 26 1017.3
20260503184803 17 336 3.2 4.8 0.00 0.00 0.00 24 1017.4
20260503184303 17 259 1.6 4.8 0.00 0.00 0.00 24 1017.6
20260503183304 17 298 3.2 12.9 0.00 0.00 0.00 27 1017.6
20260503182305 16 242 4.8 11.3 0.00 0.00 0.00 25 1017.7
20260503181804 16 346 4.8 11.3 0.00 0.00 0.00 28 1017.7
20260503181303 16 329 3.2 12.9 0.00 0.00 0.00 27 1017.7
20260503180303 16 253 1.6 4.8 0.00 0.00 0.00 29 1017.9
20260503175804 16 245 4.8 9.7 0.00 0.00 0.00 28 1018.0
20260503174304 16 235 3.2 11.3 0.00 0.00 0.00 27 1017.9
20260503173803 16 215 4.8 9.7 0.00 0.00 0.00 27 1018.0
20260503173304 16 241 3.2 4.8 0.00 0.00 0.00 28 1018.1
20260503172803 16 49 3.2 11.3 0.00 0.00 0.00 31 1018.2
20260503172305 15 321 3.2 8.0 0.00 0.00 0.00 30 1018.1
20260503171804 15 235 3.2 8.0 0.00 0.00 0.00 28 1018.2
20260503171303 15 220 4.8 12.9 0.00 0.00 0.00 28 1018.3
20260503170804 15 337 3.2 14.5 0.00 0.00 0.00 33 1018.5
20260503150803 12 222 1.6 8.0 0.00 0.00 0.00 36 1019.8
20260503150303 12 342 1.6 11.3 0.00 0.00 0.00 35 1019.8
20260503140303 10 233 3.2 8.0 0.00 0.00 0.00 38 1020.0
20260503131305 8 160 3.2 11.3 0.00 0.00 0.00 42 1019.7
20260503130805 8 237 3.2 14.5 0.00 0.00 0.00 43 1019.7
20260503110803 3 231 0.0 1.6 0.00 0.00 0.00 61 1018.8
20260503110303 3 231 0.0 1.6 0.00 0.00 0.00 61 1018.6
20260503090304 5 233 0.0 3.2 0.00 0.00 0.00 56 1016.9
20260503081304 5 242 0.0 1.6 0.00 0.00 0.00 62 1016.3
20260503080804 5 249 0.0 1.6 0.00 0.00 0.00 64 1016.3
20260503072804 5 219 0.0 3.2 0.00 0.00 0.00 67 1016.1
20260503072305 5 242 0.0 3.2 0.00 0.00 0.00 64 1015.9
20260503071804 5 253 0.0 3.2 0.00 0.00 0.00 65 1016.0
20260503071304 4 239 0.0 1.6 0.00 0.00 0.00 67 1016.0
20260503070803 4 222 0.0 0.0 0.00 0.00 0.00 68 1015.9
20260503070304 4 222 0.0 1.6 0.00 0.00 0.00 68 1015.9
20260503060304 3 242 0.0 0.0 0.00 0.00 0.00 70 1015.7
20260503054804 3 242 0.0 0.0 0.00 0.00 0.00 69 1015.8
20260503054304 3 242 0.0 0.0 0.00 0.00 0.00 68 1015.7
20260503053805 3 242 0.0 0.0 0.00 0.00 0.00 68 1015.7
20260503053304 3 242 0.0 0.0 0.00 0.00 0.00 67 1015.7
20260503052305 4 242 0.0 0.0 0.00 0.00 0.00 66 1015.7
20260503051805 4 242 0.0 0.0 0.00 0.00 0.00 66 1015.7
20260503050804 4 242 0.0 0.0 0.00 0.00 0.00 66 1015.6
20260503050304 4 242 0.0 0.0 0.00 0.00 0.00 66 1015.6
20260503045803 4 242 0.0 0.0 0.00 0.00 0.00 64 1015.6
20260503044304 5 242 0.0 0.0 0.00 0.00 0.00 62 1015.5
20260503043803 5 242 0.0 0.0 0.00 0.00 0.00 62 1015.6
20260503043303 5 242 0.0 0.0 0.00 0.00 0.00 61 1015.5
20260503042805 5 242 0.0 0.0 0.00 0.00 0.00 61 1015.5
20260503042305 5 242 0.0 1.6 0.00 0.00 0.00 60 1015.5
20260503041803 5 242 0.0 0.0 0.00 0.00 0.00 59 1015.5
20260503041303 5 242 0.0 0.0 0.00 0.00 0.00 60 1015.6
20260503040803 6 242 0.0 0.0 0.00 0.00 0.00 59 1015.6
20260503040303 6 242 0.0 0.0 0.00 0.00 0.00 58 1015.6
20260503035803 6 242 0.0 0.0 0.00 0.00 0.00 56 1015.5
20260503035304 6 242 0.0 0.0 0.00 0.00 0.00 54 1015.5
20260503034304 6 242 0.0 0.0 0.00 0.00 0.00 53 1015.5
20260503033303 7 242 0.0 0.0 0.00 0.00 0.00 52 1015.4
20260503032304 7 242 0.0 0.0 0.00 0.00 0.00 52 1015.3
20260503031804 7 242 0.0 0.0 0.00 0.00 0.00 51 1015.2
20260503031304 8 242 0.0 1.6 0.00 0.00 0.00 50 1015.2
20260503030804 8 242 0.0 0.0 0.00 0.00 0.00 49 1015.2
20260503030304 8 242 0.0 0.0 0.00 0.00 0.00 47 1015.2
20260503025804 8 242 0.0 0.0 0.00 0.00 0.00 47 1015.2
20260503023804 8 239 0.0 1.6 0.00 0.00 0.00 45 1015.2
20260503023305 8 241 0.0 1.6 0.00 0.00 0.00 46 1015.3
20260503022803 8 245 1.6 4.8 0.00 0.00 0.00 45 1015.3
20260503021804 9 253 0.0 3.2 0.00 0.00 0.00 45 1015.1
20260503021303 9 270 0.0 1.6 0.00 0.00 0.00 44 1015.1
20260503020804 9 270 0.0 1.6 0.00 0.00 0.00 44 1015.1
20260503020304 9 270 0.0 1.6 0.00 0.00 0.00 43 1015.1
20260503015803 9 275 1.6 4.8 0.00 0.00 0.00 42 1015.1
20260503014803 10 227 0.0 1.6 0.00 0.00 0.00 41 1015.0
20260503014304 10 226 1.6 3.2 0.00 0.00 0.00 40 1014.9
20260503013803 10 252 0.0 3.2 0.00 0.00 0.00 39 1014.9
20260503013303 10 249 3.2 4.8 0.00 0.00 0.00 39 1014.9
20260503012804 10 332 1.6 4.8 0.00 0.00 0.00 38 1014.9
20260503012305 10 221 1.6 1.6 0.00 0.00 0.00 37 1014.8
20260503011803 11 224 1.6 4.8 0.00 0.00 0.00 36 1014.8
20260503011303 11 323 3.2 4.8 0.00 0.00 0.00 36 1014.7
20260503010803 11 227 3.2 9.7 0.00 0.00 0.00 35 1014.7
20260503005804 11 251 3.2 4.8 0.00 0.00 0.00 35 1014.6
20260503005304 11 283 1.6 14.5 0.00 0.00 0.00 34 1014.5
20260503004803 11 227 3.2 4.8 0.00 0.00 0.00 35 1014.4
20260503004303 11 257 3.2 8.0 0.00 0.00 0.00 35 1014.3
20260503003303 11 273 1.6 8.0 0.00 0.00 0.00 34 1014.2
20260503002804 11 237 1.6 4.8 0.00 0.00 0.00 33 1014.1
20260503002305 11 251 1.6 4.8 0.00 0.00 0.00 35 1014.0
20260503001803 11 46 3.2 9.7 0.00 0.00 0.00 35 1013.9
20260503001304 11 241 6.4 12.9 0.00 0.00 0.00 34 1013.8
20260503000804 11 216 3.2 4.8 0.00 0.00 0.00 35 1013.7
20260503000304 11 228 3.2 11.3 0.00 0.00 0.00 35 1013.7
20260502235803 12 264 3.2 11.3 0.00 0.00 0.00 35 1013.6
20260502235304 12 232 3.2 8.0 0.00 0.00 0.00 36 1013.4
20260502234803 12 262 3.2 8.0 0.00 0.00 0.00 35 1013.4
20260502234304 12 240 4.8 11.3 0.00 0.00 0.00 35 1013.3
20260502233804 12 233 3.2 9.7 0.00 0.00 0.00 34 1013.2
20260502233304 12 241 4.8 11.3 0.00 0.00 0.00 35 1013.2
20260502232804 12 238 4.8 11.3 0.00 0.00 0.00 36 1013.0
20260502231304 12 224 0.0 1.6 0.00 0.00 0.00 38 1012.7
20260502230303 13 175 0.0 1.6 0.00 0.00 0.00 40 1012.7
20260502225803 13 184 1.6 3.2 0.00 0.00 0.00 38 1012.7
20260502225304 13 246 1.6 4.8 0.00 0.00 0.00 38 1012.6
20260502224804 13 336 1.6 4.8 0.00 0.00 0.00 38 1012.6